Retour au catalogue

ATLAS 5 CENTAUR DEB

LostHEO
NORAD 47248·DEBRIS·🇺🇸 United States

Lancé Oct 17, 2018 depuis Cape Canaveral Space Force Station

Loading…

Prochains Passages (prochaines 24 heures)

TLE

PériméSource: Space-Track

Époque: Dec 19, 2022, 07:58 UTC

1 47248U 18079EG  22353.33206142 -.00000180  00000-0  00000+0 0  9995
2 47248  11.0221 105.9497 5142003 211.3777 103.7136  2.09568276 15712

Suivez ATLAS 5 CENTAUR DEB en temps réel avec AllMySat

Download on the App Store